Weather History for Plattsmouth, NE

Change the Weather History Date:

Sunday, May 18, 2014

  Actual Average (KOFF) Record (KOFF)
Temperature  
Mean Temperature 58 °F -  
Max Temperature 73 °F 71 °F 90 °F (2012)
Min Temperature 43 °F 52 °F 36 °F (2014)
Degree Days  
Heating Degree Days 7    
Growing Degree Days 8 (Base 50)    
Moisture  
Dew Point 37 °F    
Average Humidity 43    
Maximum Humidity 70    
Minimum Humidity 24    
Precipitation  
Precipitation 0.00 in - - ()
Sea Level Pressure  
Sea Level Pressure 30.06 in    
Wind  
Wind Speed 10 mph (SSE)    
Max Wind Speed 21 mph    
Max Gust Speed 30 mph    
Visibility 10 miles    
Events      
Averages and records for this station are not official NWS values.
T = Trace of Precipitation, MM = Missing Value Source: NWS Daily Summary

Daily Weather History Graph

Daily Weather History Graph

Search for Another Location

Airport:

Trip Planner

Search our weather history database for the weather conditions in past years. The results will help you decide how hot, cold, wet, or windy it might be!

Date:

Astronomy

May. 18, 2014 Rise Set
Actual Time 6:03 AM CDT 8:37 PM CDT
Civil Twilight 5:31 AM CDT 9:09 PM CDT
Nautical Twilight 4:52 AM CDT 9:48 PM CDT
Astronomical Twilight 4:08 AM CDT 10:33 PM CDT
Moon No Moon Rise 9:53 AM CDT (5/18)
Length of Visible Light 15h 37m
Length of Day
14h 34m
Waning Gibbous, 81% of the Moon is Illuminated
May 18
Waning Gibbous
May 21
Last Quarter
May 28
New
Jun 5
First Quarter
Jun 12
Full

Hourly Weather History & Observations

Time (CDT) Temp. Windchill Dew Point Humidity Pressure Visibility Wind Dir Wind Speed Gust Speed Precip Events Conditions
12:15 AM 52.3 °F - 33.6 °F 49% 30.14 in 10.0 mi SSW 8.1 mph - N/A   Clear
12:35 AM 51.8 °F - 33.8 °F 50% 30.15 in 10.0 mi SSW 8.1 mph - N/A   Clear
12:55 AM 51.6 °F - 33.8 °F 51% 30.15 in 10.0 mi SSW 8.1 mph - N/A   Clear
1:15 AM 51.6 °F - 33.8 °F 51% 30.15 in 10.0 mi SSW 8.1 mph - N/A   Clear
1:35 AM 51.3 °F - 33.8 °F 51% 30.14 in 10.0 mi SSW 8.1 mph - N/A   Clear
1:55 AM 51.1 °F - 33.8 °F 52% 30.14 in 10.0 mi SSW 8.1 mph - N/A   Clear
2:15 AM 50.9 °F - 33.8 °F 52% 30.14 in 10.0 mi South 6.9 mph - N/A   Clear
2:35 AM 48.7 °F - 34.2 °F 57% 30.14 in 10.0 mi South 6.9 mph - N/A   Clear
2:55 AM 47.3 °F - 34.3 °F 61% 30.15 in 10.0 mi South 6.9 mph - N/A   Clear
3:15 AM 46.4 °F 43.5 °F 34.7 °F 64% 30.15 in 10.0 mi South 5.8 mph - N/A   Clear
3:35 AM 46.6 °F - 34.7 °F 63% 30.15 in 10.0 mi South 8.1 mph - N/A   Clear
3:55 AM 46.4 °F 42.4 °F 34.7 °F 64% 30.15 in 10.0 mi South 8.1 mph - N/A   Clear
4:15 AM 46.4 °F 42.9 °F 34.3 °F 63% 30.15 in 10.0 mi South 6.9 mph - N/A   Clear
4:35 AM 45.9 °F 42.3 °F 34.3 °F 64% 30.15 in 10.0 mi South 6.9 mph - N/A   Clear
4:55 AM 45.5 °F 41.8 °F 34.3 °F 65% 30.15 in 10.0 mi South 6.9 mph - N/A   Clear
5:15 AM 45.1 °F 41.4 °F 34.2 °F 65% 30.15 in 10.0 mi South 6.9 mph - N/A   Clear
5:35 AM 45.0 °F 41.2 °F 34.2 °F 66% 30.15 in 10.0 mi SSE 6.9 mph - N/A   Clear
5:55 AM 44.6 °F 41.4 °F 34.2 °F 67% 30.15 in 10.0 mi SSE 5.8 mph - N/A   Clear
6:15 AM 45.0 °F 41.2 °F 34.0 °F 65% 30.16 in 10.0 mi SSE 6.9 mph - N/A   Clear
6:35 AM 43.9 °F 39.9 °F 34.7 °F 70% 30.16 in 10.0 mi SSE 6.9 mph - N/A   Clear
6:55 AM 46.2 °F 42.7 °F 34.7 °F 64% 30.16 in 10.0 mi SSE 6.9 mph - N/A   Clear
7:15 AM 47.7 °F - 35.1 °F 62% 30.16 in 10.0 mi SSE 5.8 mph - N/A   Clear
7:35 AM 49.3 °F - 35.6 °F 59% 30.16 in 10.0 mi SSE 5.8 mph - N/A   Clear
7:55 AM 51.3 °F - 35.8 °F 55% 30.16 in 10.0 mi SSE 5.8 mph - N/A   Clear
8:15 AM 52.9 °F - 36.1 °F 53% 30.16 in 10.0 mi SSE 8.1 mph - N/A   Clear
8:35 AM 55.0 °F - 35.8 °F 48% 30.16 in 10.0 mi SSE 9.2 mph - N/A   Clear
8:55 AM 56.8 °F - 36.0 °F 46% 30.16 in 10.0 mi SSE 9.2 mph - N/A   Clear
9:15 AM 58.3 °F - 36.0 °F 43% 30.16 in 10.0 mi SSE 12.7 mph - N/A   Clear
9:35 AM 59.4 °F - 36.0 °F 42% 30.16 in 10.0 mi SSE 10.4 mph - N/A   Clear
9:55 AM 61.0 °F - 35.8 °F 39% 30.16 in 10.0 mi South 13.8 mph 18.4 mph N/A   Clear
10:15 AM 61.9 °F - 33.8 °F 35% 30.15 in 10.0 mi SSE 11.5 mph 19.6 mph N/A   Clear
10:35 AM 63.1 °F - 33.8 °F 33% 30.14 in 10.0 mi SE 10.4 mph 18.4 mph N/A   Clear
10:55 AM 64.4 °F - 34.0 °F 32% 30.13 in 10.0 mi SSE 11.5 mph 17.3 mph N/A   Clear
11:15 AM 64.6 °F - 33.1 °F 31% 30.13 in 10.0 mi SSE 15.0 mph 21.9 mph N/A   Clear
11:35 AM 65.3 °F - 32.9 °F 30% 30.12 in 10.0 mi SSE 11.5 mph 23.0 mph N/A   Clear
11:55 AM 66.2 °F - 33.3 °F 29% 30.11 in 10.0 mi South 12.7 mph 21.9 mph N/A   Clear
12:15 PM 66.7 °F - 33.4 °F 29% 30.11 in 10.0 mi South 15.0 mph 24.2 mph N/A   Clear
12:35 PM 67.6 °F - 33.6 °F 28% 30.10 in 10.0 mi SSE 15.0 mph 21.9 mph N/A   Clear
12:55 PM 68.9 °F - 33.8 °F 27% 30.08 in 10.0 mi SSE 16.1 mph 23.0 mph N/A   Clear
1:15 PM 69.6 °F - 33.6 °F 27% 30.08 in 10.0 mi SE 16.1 mph 23.0 mph N/A   Clear
1:35 PM 70.2 °F - 34.2 °F 27% 30.07 in 10.0 mi SSE 12.7 mph 19.6 mph N/A   Clear
1:55 PM 70.7 °F - 34.0 °F 26% 30.06 in 10.0 mi ESE 11.5 mph 18.4 mph N/A   Clear
2:15 PM 70.9 °F - 33.8 °F 26% 30.05 in 10.0 mi SSE 12.7 mph 21.9 mph N/A   Scattered Clouds
2:35 PM 72.5 °F - 33.1 °F 24% 30.05 in 10.0 mi SSE 13.8 mph 23.0 mph N/A   Scattered Clouds
2:55 PM 72.5 °F - 33.6 °F 24% 30.04 in 10.0 mi SSE 17.3 mph 23.0 mph N/A   Clear
3:15 PM 72.1 °F - 34.7 °F 25% 30.03 in 10.0 mi SE 19.6 mph 23.0 mph N/A   Mostly Cloudy
3:35 PM 72.1 °F - 35.1 °F 26% 30.01 in 10.0 mi SSE 15.0 mph 21.9 mph N/A   Mostly Cloudy
3:55 PM 72.9 °F - 35.4 °F 25% 30.00 in 10.0 mi SSE 17.3 mph 20.7 mph N/A   Mostly Cloudy
4:15 PM 72.7 °F - 35.8 °F 26% 29.98 in 10.0 mi SE 17.3 mph 25.3 mph N/A   Mostly Cloudy
4:35 PM 72.5 °F - 36.5 °F 27% 29.98 in 10.0 mi South 15.0 mph 21.9 mph N/A   Mostly Cloudy
4:55 PM 73.2 °F - 38.3 °F 28% 29.97 in 10.0 mi SE 19.6 mph 24.2 mph N/A   Mostly Cloudy
5:15 PM 72.5 °F - 39.2 °F 30% 29.96 in 10.0 mi SSE 13.8 mph 24.2 mph N/A   Scattered Clouds
5:35 PM 72.7 °F - 40.1 °F 31% 29.95 in 10.0 mi SSE 19.6 mph 26.5 mph N/A   Clear
5:55 PM 72.0 °F - 39.7 °F 31% 29.94 in 10.0 mi SE 20.7 mph 25.3 mph N/A   Clear
6:15 PM 72.5 °F - 39.6 °F 30% 29.94 in 10.0 mi SSE 18.4 mph 26.5 mph N/A   Clear
6:35 PM 72.1 °F - 39.9 °F 31% 29.93 in 10.0 mi SSE 18.4 mph 28.8 mph N/A   Clear
6:55 PM 71.4 °F - 39.9 °F 32% 29.93 in 10.0 mi SSE 19.6 mph 29.9 mph N/A   Clear
7:15 PM 71.1 °F - 40.5 °F 33% 29.92 in 10.0 mi SSE 20.7 mph 25.3 mph N/A   Clear
7:35 PM 70.0 °F - 41.0 °F 35% 29.92 in 10.0 mi SE 19.6 mph 25.3 mph N/A   Clear
7:55 PM 69.3 °F - 41.7 °F 37% 29.92 in 10.0 mi SSE 16.1 mph 24.2 mph N/A   Clear
8:15 PM 68.9 °F - 41.2 °F 36% 29.91 in 10.0 mi SSE 18.4 mph 26.5 mph N/A   Clear
8:35 PM 68.0 °F - 40.5 °F 37% 29.91 in 10.0 mi SE 17.3 mph 25.3 mph N/A   Clear
8:55 PM 67.3 °F - 41.0 °F 38% 29.91 in 10.0 mi SE 15.0 mph 24.2 mph N/A   Clear
9:15 PM 66.2 °F - 41.5 °F 41% 29.92 in 10.0 mi SE 13.8 mph - N/A   Clear
9:35 PM 65.3 °F - 42.1 °F 43% 29.92 in 10.0 mi SE 9.2 mph - N/A   Clear
9:55 PM 64.6 °F - 42.6 °F 45% 29.93 in 10.0 mi SE 9.2 mph - N/A   Clear
10:15 PM 63.9 °F - 43.0 °F 47% 29.94 in 10.0 mi SE 6.9 mph - N/A   Mostly Cloudy
10:35 PM 63.1 °F - 43.2 °F 48% 29.95 in 10.0 mi SE 9.2 mph - N/A   Mostly Cloudy
10:55 PM 63.5 °F - 43.3 °F 48% 29.94 in 10.0 mi SE 10.4 mph - N/A   Mostly Cloudy
11:15 PM 63.7 °F - 43.5 °F 48% 29.95 in 10.0 mi SE 11.5 mph - N/A   Overcast
11:35 PM 63.7 °F - 43.5 °F 48% 29.95 in 10.0 mi SE 9.2 mph - N/A   Overcast
11:55 PM 63.7 °F - 43.7 °F 48% 29.94 in 10.0 mi SE 10.4 mph 16.1 mph N/A   Overcast